Weather History for Moriarty, NM

Change the Weather History Date:

Sunday, September 8, 2013

  Actual Average (KABQ) Record (KABQ)
Temperature  
Mean Temperature 65 °F 72 °F  
Max Temperature 85 °F 84 °F 94 °F (1959)
Min Temperature 45 °F 61 °F 47 °F (1920)
Degree Days  
Heating Degree Days 0 0  
Month to date heating degree days 0  
Since 1 July heating degree days 0  
Cooling Degree Days 0 7  
Month to date cooling degree days 66  
Year to date cooling degree days 1223  
Growing Degree Days 15 (Base 50)    
Moisture  
Dew Point 42 °F    
Average Humidity 43    
Maximum Humidity 72    
Minimum Humidity 22    
Precipitation  
Precipitation 0.00 in 0.04 in 0.54 in (1995)
Month to date precipitation 0.30  
Year to date precipitation 6.58  
Snow  
Snow 0.00 in - - ()
Month to date snowfall  
Since 1 July snowfall  
Since 1 September snowfall  
Snow Depth -    
Sea Level Pressure  
Sea Level Pressure 30.19 in    
Wind  
Wind Speed 5 mph (SSE)    
Max Wind Speed 17 mph    
Max Gust Speed 23 mph    
Visibility 10 miles    
Events      
T = Trace of Precipitation, MM = Missing Value Source: NWS Daily Summary

Daily Weather History Graph

Daily Weather History Graph

Search for Another Location

Airport:

Trip Planner

Search our weather history database for the weather conditions in past years. The results will help you decide how hot, cold, wet, or windy it might be!

Date:

Astronomy

Sep. 08, 2013 Rise Set
Actual Time 6:42 AM MDT 7:20 PM MDT
Civil Twilight 6:16 AM MDT 7:46 PM MDT
Nautical Twilight 5:46 AM MDT 8:16 PM MDT
Astronomical Twilight 5:15 AM MDT 8:46 PM MDT
Moon 9:52 AM MDT (9/8) 9:08 PM MDT (9/8)
Length of Visible Light 13h 29m
Length of Day
12h 38m
Waxing Crescent, 11% of the Moon is Illuminated
Sep 8
Waxing Crescent
Sep 12
First Quarter
Sep 19
Full
Sep 26
Last Quarter
Oct 4
New

Hourly Weather History & Observations

Time (MDT) Temp. Windchill Dew Point Humidity Pressure Visibility Wind Dir Wind Speed Gust Speed Precip Events Conditions
12:15 AM 57.2 °F - 38.5 °F 50% 30.27 in 10.0 mi Calm Calm - N/A   Clear
12:35 AM 57.7 °F - 38.7 °F 49% 30.27 in 10.0 mi Calm Calm - N/A   Clear
12:55 AM 57.2 °F - 39.6 °F 52% 30.27 in 10.0 mi Calm Calm - N/A   Clear
1:15 AM 55.0 °F - 36.5 °F 50% 30.27 in 10.0 mi Calm Calm - N/A   Clear
1:35 AM 54.3 °F - 38.3 °F 55% 30.27 in 10.0 mi Calm Calm - N/A   Clear
1:55 AM 53.1 °F - 38.1 °F 57% 30.27 in 10.0 mi NW 4.6 mph - N/A   Scattered Clouds
2:15 AM 51.1 °F - 36.9 °F 58% 30.26 in 10.0 mi North 3.5 mph - N/A   Scattered Clouds
2:35 AM 50.4 °F - 37.4 °F 61% 30.25 in 10.0 mi NW 3.5 mph - N/A   Scattered Clouds
2:55 AM 50.2 °F - 38.8 °F 65% 30.25 in 10.0 mi WNW 5.8 mph - N/A   Clear
3:15 AM 52.0 °F - 39.0 °F 61% 30.25 in 10.0 mi Calm Calm - N/A   Clear
3:35 AM 50.4 °F - 38.7 °F 64% 30.25 in 10.0 mi Calm Calm - N/A   Clear
3:55 AM 49.3 °F - 37.8 °F 65% 30.25 in 10.0 mi Calm Calm - N/A   Clear
4:15 AM 49.1 °F - 37.9 °F 65% 30.25 in 10.0 mi Calm Calm - N/A   Clear
4:35 AM 49.1 °F - 38.3 °F 66% 30.25 in 10.0 mi North 4.6 mph - N/A   Clear
4:55 AM 48.2 °F - 38.3 °F 69% 30.25 in 10.0 mi Calm Calm - N/A   Clear
5:15 AM 47.3 °F - 36.3 °F 66% 30.24 in 10.0 mi ENE 4.6 mph - N/A   Clear
5:35 AM 47.8 °F - 37.4 °F 67% 30.24 in 10.0 mi NE 3.5 mph - N/A   Clear
5:55 AM 45.1 °F 43.7 °F 35.6 °F 69% 30.24 in 10.0 mi North 3.5 mph - N/A   Clear
6:15 AM 46.8 °F - 38.1 °F 72% 30.25 in 10.0 mi NE 3.5 mph - N/A   Clear
6:35 AM 46.9 °F - 37.9 °F 71% 30.25 in 10.0 mi WNW 4.6 mph - N/A   Clear
6:55 AM 47.7 °F - 38.8 °F 71% 30.25 in 10.0 mi WNW 3.5 mph - N/A   Clear
7:15 AM 47.1 °F - 36.9 °F 68% 30.25 in 10.0 mi Calm Calm - N/A   Clear
7:35 AM 51.4 °F - 39.4 °F 63% 30.25 in 10.0 mi Calm Calm - N/A   Clear
7:55 AM 54.9 °F - 40.5 °F 58% 30.25 in 10.0 mi Calm Calm - N/A   Clear
8:15 AM 58.8 °F - 42.4 °F 55% 30.25 in 10.0 mi NW 3.5 mph - N/A   Clear
8:35 AM 61.7 °F - 42.8 °F 50% 30.25 in 10.0 mi Calm Calm - N/A   Clear
8:55 AM 64.4 °F - 43.2 °F 46% 30.25 in 10.0 mi Calm Calm - N/A   Clear
9:15 AM 66.2 °F - 43.3 °F 44% 30.25 in 10.0 mi SW 3.5 mph - N/A   Clear
9:35 AM 69.1 °F - 43.2 °F 39% 30.25 in 10.0 mi Calm Calm - N/A   Clear
9:55 AM 71.8 °F - 43.3 °F 36% 30.25 in 10.0 mi Calm Calm - N/A   Clear
10:15 AM 74.5 °F - 44.4 °F 34% 30.25 in 10.0 mi South 5.8 mph - N/A   Clear
10:35 AM 75.4 °F - 44.2 °F 33% 30.24 in 10.0 mi South 5.8 mph - N/A   Clear
10:55 AM 76.6 °F - 44.6 °F 32% 30.23 in 10.0 mi South 5.8 mph - N/A   Clear
11:15 AM 77.2 °F - 44.1 °F 31% 30.23 in 10.0 mi South 5.8 mph - N/A   Clear
11:35 AM 78.6 °F - 43.3 °F 29% 30.23 in 10.0 mi South 12.7 mph 16.1 mph N/A   Clear
11:55 AM 79.0 °F - 42.6 °F 27% 30.22 in 10.0 mi South 6.9 mph - N/A   Clear
12:15 PM 79.2 °F - 42.6 °F 27% 30.21 in 10.0 mi SSE 5.8 mph 16.1 mph N/A   Scattered Clouds
12:35 PM 80.4 °F - 41.9 °F 25% 30.20 in 10.0 mi SE 5.8 mph - N/A   Scattered Clouds
12:55 PM 81.3 °F - 41.4 °F 24% 30.20 in 10.0 mi South 13.8 mph 17.3 mph N/A   Clear
1:15 PM 82.2 °F - 42.3 °F 24% 30.19 in 10.0 mi SE 11.5 mph 16.1 mph N/A   Clear
1:35 PM 82.2 °F - 42.6 °F 25% 30.17 in 10.0 mi SW 8.1 mph 19.6 mph N/A   Clear
1:55 PM 83.5 °F - 42.1 °F 23% 30.17 in 10.0 mi South 11.5 mph 19.6 mph N/A   Scattered Clouds
2:15 PM 83.7 °F - 42.1 °F 23% 30.16 in 10.0 mi SSW 11.5 mph 18.4 mph N/A   Scattered Clouds
2:35 PM 84.2 °F - 41.5 °F 22% 30.15 in 10.0 mi SSE 10.4 mph 17.3 mph N/A   Scattered Clouds
2:55 PM 83.7 °F - 42.1 °F 23% 30.14 in 10.0 mi SSE 15.0 mph 19.6 mph N/A   Scattered Clouds
3:15 PM 85.1 °F - 41.7 °F 22% 30.13 in 10.0 mi South 9.2 mph 18.4 mph N/A   Scattered Clouds
3:35 PM 82.6 °F - 41.9 °F 24% 30.12 in 10.0 mi SE 15.0 mph 20.7 mph N/A   Scattered Clouds
3:55 PM 84.2 °F - 42.6 °F 23% 30.11 in 10.0 mi SSE 16.1 mph 23.0 mph N/A   Scattered Clouds
4:15 PM 83.3 °F - 42.4 °F 24% 30.10 in 10.0 mi South 12.7 mph 21.9 mph N/A   Scattered Clouds
4:35 PM 83.1 °F - 41.5 °F 23% 30.10 in 10.0 mi SE 9.2 mph - N/A   Clear
4:55 PM 82.8 °F - 42.8 °F 24% 30.10 in 10.0 mi South 16.1 mph 23.0 mph N/A   Clear
5:15 PM 82.0 °F - 43.2 °F 25% 30.09 in 10.0 mi South 17.3 mph 23.0 mph N/A   Clear
5:35 PM 81.5 °F - 43.0 °F 26% 30.08 in 10.0 mi SSE 16.1 mph 23.0 mph N/A   Clear
5:55 PM 80.8 °F - 43.0 °F 26% 30.09 in 10.0 mi SSE 16.1 mph 21.9 mph N/A   Clear
6:15 PM 80.2 °F - 42.8 °F 26% 30.09 in 10.0 mi South 15.0 mph - N/A   Scattered Clouds
6:35 PM 79.7 °F - 42.4 °F 27% 30.10 in 10.0 mi SSE 16.1 mph 23.0 mph N/A   Mostly Cloudy
6:55 PM 78.6 °F - 42.3 °F 27% 30.10 in 10.0 mi SSE 13.8 mph 19.6 mph N/A   Mostly Cloudy
7:15 PM 77.0 °F - 42.1 °F 29% 30.10 in 10.0 mi SSE 12.7 mph 17.3 mph N/A   Mostly Cloudy
7:35 PM 75.2 °F - 42.1 °F 30% 30.11 in 10.0 mi SSE 11.5 mph - N/A   Scattered Clouds
7:55 PM 73.8 °F - 42.1 °F 32% 30.11 in 10.0 mi SSE 9.2 mph - N/A   Clear
8:15 PM 72.1 °F - 41.9 °F 34% 30.12 in 10.0 mi SSE 9.2 mph - N/A   Clear
8:35 PM 71.1 °F - 41.9 °F 35% 30.13 in 10.0 mi SSE 9.2 mph - N/A   Scattered Clouds
8:55 PM 70.9 °F - 42.3 °F 36% 30.13 in 10.0 mi SSE 10.4 mph - N/A   Scattered Clouds
9:15 PM 70.0 °F - 42.1 °F 36% 30.15 in 10.0 mi SE 16.1 mph - N/A   Scattered Clouds
9:35 PM 68.9 °F - 42.4 °F 38% 30.15 in 10.0 mi SSE 11.5 mph - N/A   Scattered Clouds
9:55 PM 68.0 °F - 45.5 °F 44% 30.16 in 10.0 mi SSE 12.7 mph - N/A   Clear
10:15 PM 66.6 °F - 47.3 °F 50% 30.16 in 10.0 mi SSE 10.4 mph - N/A   Clear
10:35 PM 65.8 °F - 47.8 °F 52% 30.16 in 10.0 mi SE 10.4 mph - N/A   Clear
10:55 PM 64.6 °F - 47.7 °F 54% 30.16 in 10.0 mi SSE 8.1 mph - N/A   Clear
11:15 PM 61.3 °F - 47.1 °F 60% 30.16 in 10.0 mi SSW 4.6 mph - N/A   Clear
11:35 PM 59.7 °F - 46.8 °F 62% 30.17 in 10.0 mi SSW 5.8 mph - N/A   Clear
11:55 PM 59.0 °F - 46.0 °F 62% 30.17 in 10.0 mi ESE 4.6 mph - N/A   Clear